Theta_e
287 287 287 287 287 286 286 286 286 286 285 285 285 284 284 284 284 283 282 282 282 281 281 281 280 280 279 278 278 278 277 277 277 276 276 275 275 275 275 275 274 274 274 274 274 274 274 273 273 273 274 273 273 273 274 273 273 274 274 273 272 272 272 271 269 270 272 274 274 274 274 274 273 274 273 274 274 275 277 275 275 275 275 275 275
287 287 287 287 286 287 286 286 285 285 285 284 284 284 284 284 283 282 282 282 282 281 281 281 280 279 279 278 278 277 277 277 276 276 275 275 274 274 274 274 274 273 273 273 273 274 273 273 273 273 273 272 272 272 272 272 272 272 272 272 271 271 272 271 270 269 269 272 272 273 273 274 272 273 273 273 273 274 274 274 275 275 274 275 275
287 287 286 286 286 286 286 285 284 284 284 284 284 284 284 283 283 282 282 281 281 281 281 280 280 279 278 278 277 277 277 276 276 276 275 275 274 274 274 274 273 273 273 272 272 273 272 272 272 272 272 271 272 272 272 272 272 272 271 272 271 271 271 271 270 268 268 269 271 271 272 273 272 272 273 274 274 274 273 274 274 275 276 275 275
287 286 286 286 286 285 285 285 284 284 284 284 284 284 283 283 282 282 281 281 280 280 280 280 279 278 278 277 277 276 276 275 275 275 275 274 274 274 273 273 273 273 272 272 272 272 271 271 271 271 271 271 271 271 271 271 271 271 271 271 271 270 271 271 271 269 269 268 270 270 272 272 272 273 274 274 274 274 274 274 275 274 274 275 275
286 286 285 285 285 284 284 284 284 283 284 284 284 283 283 282 281 281 280 280 280 279 279 279 278 278 277 277 276 275 275 275 275 274 274 274 274 273 273 273 272 272 272 272 273 271 271 271 271 270 270 270 270 270 271 270 271 271 270 270 270 270 271 271 270 271 269 269 270 271 272 272 273 273 274 273 274 274 274 274 274 274 275 275 276
286 285 285 285 284 284 284 284 283 283 284 284 284 283 282 281 281 280 280 279 279 279 278 278 278 277 277 276 276 275 275 275 274 274 274 273 273 273 272 272 272 272 271 271 271 271 270 270 270 270 270 270 270 270 271 270 270 270 270 270 270 270 270 271 271 271 270 270 270 270 272 272 272 273 274 274 273 273 273 274 275 275 274 274 275
286 285 285 284 284 284 284 284 284 284 284 284 284 283 282 281 280 280 280 279 279 278 278 277 277 277 276 275 275 274 274 274 273 273 273 272 272 272 271 271 271 271 271 270 270 270 270 270 270 270 270 270 270 270 270 270 270 270 270 270 271 271 271 271 272 271 271 270 271 271 271 273 273 272 274 275 274 274 272 273 273 275 275 275 275
285 285 285 284 284 284 284 284 284 284 284 283 283 283 282 281 280 280 279 279 278 278 277 277 276 276 275 275 274 274 273 273 273 272 272 272 271 271 271 270 270 270 270 270 270 270 270 271 271 271 271 271 271 271 271 270 271 270 271 272 272 272 271 272 272 271 271 271 271 271 272 272 273 274 275 274 273 273 275 274 272 273 274 276 276
285 285 285 284 284 285 285 284 284 283 283 283 283 282 281 281 280 279 279 278 278 277 277 276 275 274 274 274 273 273 273 273 272 272 271 271 271 270 270 270 269 269 270 270 270 270 271 271 271 271 272 273 274 274 274 273 272 271 272 273 273 272 272 272 272 272 271 271 271 272 272 272 273 273 273 273 272 272 274 275 274 275 275 275 276
285 285 285 285 285 285 284 283 283 283 282 282 282 281 281 280 279 278 278 277 277 276 275 275 274 274 273 272 272 272 272 272 274 276 275 271 270 270 269 269 270 270 270 270 270 271 271 271 272 274 275 275 276 276 277 278 278 276 275 275 274 274 273 273 273 273 272 271 271 272 272 272 273 273 273 274 275 275 275 275 273 274 275 274 274
285 285 285 285 285 284 284 283 283 282 282 282 281 280 280 278 278 277 276 276 275 275 274 274 273 273 273 272 271 271 271 271 277 278 278 277 271 270 270 270 271 271 271 270 270 271 272 273 273 275 276 276 276 277 278 278 278 279 279 279 278 276 274 274 274 274 273 272 273 273 272 272 273 274 274 275 275 275 275 275 274 274 272 271 270
285 285 285 285 285 284 284 283 282 282 281 281 280 279 278 277 276 276 275 274 274 273 273 273 273 272 272 271 271 271 270 274 279 279 279 278 275 270 270 270 271 271 271 271 272 273 273 274 274 274 275 274 274 274 275 277 277 278 278 278 279 279 279 276 274 273 274 273 273 273 273 273 274 275 275 275 274 274 274 274 273 273 272 272 272
284 284 284 284 284 283 283 282 281 281 280 280 279 278 277 276 276 275 274 274 273 272 273 273 272 272 271 271 270 270 270 276 279 280 280 279 277 273 271 271 271 271 272 273 273 273 274 274 274 274 274 276 275 274 274 274 276 277 277 277 278 278 279 279 280 277 276 274 274 274 274 274 273 273 274 274 275 273 274 273 274 274 274 273 273
283 283 283 283 282 282 282 281 281 280 280 279 278 277 276 276 276 275 274 273 272 272 272 272 271 271 270 270 270 270 269 276 280 281 280 280 278 275 272 272 272 273 273 273 274 274 274 274 273 273 273 273 273 273 272 272 272 273 273 274 274 275 277 278 278 279 278 276 274 273 274 274 273 274 275 277 275 274 274 273 274 274 274 273 275
281 282 281 281 281 281 281 281 280 280 279 278 276 276 275 275 275 274 273 273 272 272 271 271 270 270 270 270 269 269 269 277 280 281 281 281 280 276 273 273 274 274 274 275 274 274 275 274 274 273 272 272 273 273 272 272 273 273 273 274 275 275 276 276 276 276 275 275 274 274 275 276 276 276 277 277 276 276 276 275 275 275 276 276 276
280 280 280 280 280 280 280 280 279 278 277 276 275 275 275 275 274 273 273 272 272 272 271 271 270 269 269 269 269 269 270 277 281 282 282 282 282 276 274 274 274 274 274 275 275 275 274 273 272 272 271 271 274 276 276 275 274 273 273 274 274 275 275 277 278 279 278 277 277 276 276 277 279 277 278 278 277 277 277 276 275 273 272 270 269
279 279 279 279 280 280 279 279 278 277 276 275 275 274 274 274 274 273 272 272 271 271 270 270 270 269 269 269 269 269 269 276 281 282 282 282 281 276 275 274 274 273 273 274 274 274 273 272 271 271 271 271 274 276 277 277 274 273 273 273 273 273 273 276 278 279 279 279 279 279 280 280 281 281 280 280 277 276 273 270 269 269 268 267 268
278 278 279 279 279 278 279 278 277 276 275 275 274 275 274 274 274 273 272 271 271 270 270 270 270 269 269 269 270 270 270 275 281 282 282 282 280 275 274 273 273 273 272 273 272 272 273 274 273 272 272 273 276 277 277 276 274 274 273 273 272 273 273 274 274 275 277 277 278 278 278 278 278 278 277 276 276 275 270 267 269 269 267 267 266
277 277 277 276 275 276 277 277 277 276 275 275 275 274 273 273 273 272 272 272 271 270 270 269 269 269 269 270 272 271 270 275 281 281 281 282 279 275 274 273 272 272 272 271 272 272 272 274 275 275 274 275 276 277 277 276 274 274 273 273 272 271 272 273 272 271 271 272 273 272 271 271 270 268 269 273 274 274 271 269 269 268 267 267 267
276 275 275 275 274 275 276 276 276 275 275 274 274 274 274 272 271 271 271 271 270 270 269 269 268 268 269 269 271 271 271 274 278 281 281 281 280 274 273 272 271 271 271 270 270 271 272 272 274 276 277 277 277 277 277 277 275 275 274 272 271 271 272 271 271 272 273 271 269 268 267 267 267 268 268 268 269 270 270 270 270 269 268 268 268
276 276 275 275 274 274 274 275 275 275 275 274 274 274 273 272 271 271 270 270 269 269 268 268 268 268 268 269 270 269 270 272 276 280 280 281 280 276 272 272 271 271 270 270 270 270 272 273 273 274 275 275 275 276 276 277 277 275 274 272 272 272 274 272 273 272 268 266 265 265 265 265 266 267 267 268 268 269 270 271 271 271 269 268 267
276 276 276 276 276 275 275 275 275 275 274 274 273 272 272 271 271 270 270 269 269 268 268 268 267 267 267 268 268 268 270 273 273 279 280 281 280 278 273 272 272 271 270 270 271 271 272 272 272 273 274 274 274 275 276 277 277 274 273 275 276 276 273 273 268 266 264 263 262 262 263 263 264 265 266 267 268 269 270 270 271 271 271 270 269
275 276 276 276 275 275 275 275 275 274 273 273 272 271 270 270 270 270 269 269 268 268 267 267 267 266 266 267 268 268 269 271 275 275 279 280 280 279 276 274 276 272 271 270 271 272 272 272 272 273 273 274 274 276 276 276 275 273 274 275 275 275 273 266 264 262 261 261 262 261 262 263 263 264 265 266 268 269 269 270 270 270 270 271 271
275 275 275 275 275 275 274 274 274 273 273 272 272 270 269 269 269 269 269 268 268 267 267 266 266 266 265 266 267 268 269 270 274 276 277 280 280 280 278 277 277 273 272 272 272 271 271 271 270 272 273 274 275 275 274 274 273 273 273 274 274 272 266 263 261 261 261 261 261 261 262 263 264 265 266 267 268 268 269 269 269 270 270 270 271
274 275 275 274 274 274 273 273 273 273 272 272 271 270 269 269 268 268 268 268 268 267 266 266 266 265 265 265 266 267 268 269 271 275 278 279 280 280 279 278 278 277 273 272 272 271 272 273 272 273 274 273 273 272 271 270 271 271 272 272 271 263 261 260 260 260 260 260 261 262 263 264 265 266 267 267 268 268 268 268 269 270 270 271 271
274 275 274 274 274 273 272 272 272 272 272 272 272 271 269 269 268 268 268 267 267 267 266 266 266 266 265 266 266 266 268 269 270 272 275 277 278 279 278 278 278 277 274 272 273 273 273 273 274 272 270 269 268 267 266 266 269 271 270 269 263 260 260 259 260 260 260 262 262 262 263 264 265 266 267 267 266 266 266 266 267 267 268 268 268
276 275 274 274 273 272 272 272 271 271 271 271 271 271 270 269 269 268 268 267 267 267 266 265 266 266 266 266 267 267 267 268 269 271 272 273 274 275 276 276 277 276 272 272 272 270 271 270 268 270 269 269 268 268 268 267 264 262 261 261 260 260 260 259 260 261 262 262 262 262 263 265 266 265 265 265 265 265 267 267 267 267 267 267 267
276 275 274 273 272 271 272 270 270 270 270 270 270 270 269 269 269 269 267 267 267 267 266 265 266 266 266 267 267 266 266 267 268 269 270 271 272 273 273 272 272 270 269 269 267 267 266 267 265 261 260 259 259 258 258 258 260 260 259 259 259 260 262 265 266 262 262 262 262 263 263 263 263 263 264 264 265 265 267 267 266 266 267 267 266
274 274 273 271 270 270 271 270 270 270 270 270 270 270 269 269 269 270 270 270 269 269 267 266 267 268 268 268 267 266 266 266 267 272 270 273 271 270 270 269 269 269 270 270 264 262 261 257 256 257 256 256 256 254 254 256 257 258 258 257 258 258 258 257 258 259 260 261 261 261 261 262 262 263 264 264 264 265 267 266 267 267 267 267 265
274 273 272 271 270 269 269 269 269 269 269 269 269 268 270 272 271 269 269 272 273 274 273 268 269 269 269 269 269 267 266 267 273 275 274 275 275 274 273 273 272 270 272 273 266 259 257 256 255 254 254 254 253 254 255 255 255 256 257 260 259 257 258 259 259 260 260 261 261 261 261 262 262 263 263 264 265 266 267 268 267 267 266 265 264
274 273 271 270 269 269 269 268 268 268 268 268 268 267 266 269 273 274 272 272 273 274 275 274 274 274 271 269 270 272 272 273 274 275 275 275 275 275 275 274 274 273 274 268 262 259 255 255 255 253 255 254 253 254 255 255 256 256 256 257 257 258 259 258 259 260 260 260 261 261 262 262 262 263 263 264 265 265 266 267 267 266 265 265 264
275 274 272 270 269 268 268 268 267 267 267 267 267 266 266 265 267 273 274 273 274 275 276 275 275 275 275 272 270 270 273 275 276 276 276 276 276 276 275 275 275 275 274 270 259 256 256 255 253 253 253 253 255 255 255 255 255 255 255 255 256 257 258 258 259 260 260 260 260 261 261 262 263 263 264 264 265 265 266 266 266 265 265 265 264
275 275 273 270 269 268 267 267 266 266 266 266 265 266 265 265 265 266 270 274 275 276 276 276 276 276 275 274 274 273 274 275 276 277 277 277 277 276 276 276 276 275 273 263 258 257 254 254 253 253 253 253 254 253 254 254 254 254 255 255 255 256 258 259 260 259 259 260 261 262 262 263 263 264 264 265 265 265 265 265 265 265 264 264 264
275 275 274 271 269 268 267 267 266 266 266 266 266 265 266 266 266 267 267 268 271 274 276 277 277 276 276 275 275 275 276 277 277 277 277 277 277 276 275 273 275 273 267 258 258 256 255 253 253 252 252 252 253 253 253 254 254 254 255 255 256 256 257 258 258 258 259 260 260 261 262 263 263 263 264 265 266 266 265 265 265 264 264 264 263
275 273 271 270 270 268 268 267 266 266 266 265 265 266 266 267 267 267 267 267 268 269 270 273 276 276 273 274 276 277 277 278 278 277 277 277 276 276 275 269 265 260 258 256 256 255 254 253 252 252 251 252 252 252 253 253 252 253 253 254 254 255 256 257 257 258 259 260 261 261 262 262 263 264 264 264 265 265 265 264 264 264 264 263 263
274 274 274 271 270 269 268 267 267 266 266 265 266 266 267 267 267 267 268 269 269 269 270 271 272 275 276 276 277 278 278 278 278 277 276 276 276 275 265 262 259 258 256 255 254 254 253 252 251 251 251 251 252 251 252 251 252 252 252 253 254 255 255 255 257 258 260 261 261 261 262 262 263 264 265 265 265 265 265 264 264 264 264 264 264
275 275 274 272 270 270 268 267 266 266 267 266 266 266 267 267 268 268 269 269 269 269 269 270 270 271 274 273 275 277 278 277 277 276 276 275 276 268 263 262 259 257 255 254 253 252 252 251 251 250 250 251 251 251 251 251 251 252 255 255 254 254 254 255 258 260 260 260 260 260 261 262 263 264 265 265 265 265 265 264 264 264 264 264 264
274 274 274 273 270 268 268 267 266 267 266 266 266 266 267 267 268 268 268 268 269 268 268 269 270 269 269 270 275 274 274 276 276 275 275 273 264 260 260 259 258 257 256 254 253 252 251 250 249 249 250 250 250 250 250 250 251 251 252 253 254 254 259 259 259 258 258 259 260 261 262 263 263 264 265 265 265 264 264 264 264 263 264 264 263
274 274 274 274 272 269 267 266 266 266 266 266 266 266 267 267 267 268 268 268 268 268 268 268 268 268 268 270 271 273 273 270 267 263 260 258 258 258 257 257 256 255 254 253 252 251 250 249 249 249 249 249 249 249 249 250 250 251 252 252 253 253 254 255 256 257 258 259 260 261 262 263 264 265 266 265 265 264 264 264 264 263 263 263 263
273 273 273 274 271 269 267 266 266 266 266 266 266 267 266 267 267 268 268 267 267 267 268 267 267 267 268 270 269 270 268 265 262 259 257 256 255 255 256 255 255 254 253 252 251 250 249 248 248 248 248 248 248 248 248 249 250 251 252 252 252 253 254 255 256 257 258 259 260 261 263 264 265 265 266 266 265 264 264 263 263 263 263 263 263
272 273 271 273 271 269 267 266 265 265 266 266 266 267 266 267 267 267 267 266 266 266 266 266 266 267 267 268 273 270 265 262 258 257 256 255 254 253 254 254 253 252 252 251 250 249 248 248 248 248 248 247 247 247 248 249 250 251 251 253 253 254 255 255 256 257 258 259 261 262 263 264 265 265 265 265 267 265 264 264 263 263 264 264 264
273 272 271 270 270 268 266 265 265 265 266 266 266 266 266 266 267 266 266 265 265 265 265 265 264 264 267 272 271 270 262 259 257 256 255 254 254 253 253 252 252 251 251 250 249 248 247 247 248 247 247 247 247 247 248 248 249 250 251 252 253 254 255 256 257 258 258 260 261 262 263 264 265 266 266 267 264 263 263 263 263 263 263 263 263
272 272 270 269 268 267 266 265 266 265 265 265 266 265 265 266 265 265 264 264 264 264 263 262 261 262 266 271 269 267 259 257 256 255 254 254 253 253 252 252 251 250 249 248 247 247 247 246 246 247 247 247 247 248 248 248 248 249 250 252 253 254 255 256 257 258 259 260 261 263 263 264 265 266 265 264 264 263 263 263 263 263 263 263 263
271 270 268 267 267 266 266 265 265 265 265 265 265 265 265 265 264 264 263 263 263 262 262 261 261 263 265 267 264 259 257 256 255 255 254 253 253 252 252 250 248 246 246 246 246 246 246 245 246 247 246 247 247 247 248 248 249 249 250 251 253 255 255 256 257 258 259 260 261 262 263 264 266 266 265 264 263 263 262 262 263 263 263 263 263
269 268 267 266 266 265 264 265 265 265 264 263 264 263 263 263 263 263 263 262 261 261 260 260 261 262 264 262 258 257 256 255 254 254 253 253 252 252 250 247 247 247 246 246 246 245 245 246 246 245 246 247 247 247 248 249 249 249 250 251 252 253 255 256 257 258 260 260 262 263 263 265 266 266 265 264 263 263 262 262 263 263 263 263 263
267 266 266 265 264 264 264 264 263 263 263 263 262 262 262 262 262 262 261 260 260 259 259 259 260 261 260 258 257 255 254 254 253 253 253 252 252 250 248 247 246 246 246 246 245 244 245 245 245 246 246 247 247 247 248 248 249 250 250 251 253 254 255 256 257 258 260 262 262 263 265 267 266 265 265 264 263 263 263 263 263 263 263 263 263
266 265 264 264 263 263 263 262 262 262 262 262 262 261 261 261 261 260 259 259 258 258 259 259 258 256 256 256 255 254 253 253 252 252 252 251 251 249 247 246 245 245 245 245 244 245 244 245 245 246 246 246 246 247 247 248 249 250 251 252 252 254 255 257 259 260 262 263 264 265 267 266 266 265 264 264 263 263 262 262 262 262 263 263 263
264 264 263 263 262 262 261 261 261 260 261 261 261 260 260 259 258 258 258 257 257 258 258 257 257 256 255 254 253 253 253 252 252 252 251 250 249 247 246 245 246 246 245 244 244 244 244 244 245 245 245 246 247 247 247 248 249 250 251 252 253 254 256 258 260 261 262 263 265 267 267 266 265 265 264 263 263 262 262 262 262 263 263 263 263
263 262 262 261 261 261 261 260 260 260 260 259 259 258 258 258 257 257 257 257 257 257 257 256 255 255 254 252 252 251 251 251 251 250 250 249 247 246 245 246 246 245 244 244 244 243 244 244 244 245 245 245 245 246 247 248 249 250 251 252 253 257 258 260 261 262 264 266 268 268 267 266 265 265 264 263 263 263 262 262 262 262 263 263 263
261 261 261 260 260 260 260 260 260 259 259 258 258 257 257 256 256 256 256 255 255 255 254 255 254 253 252 251 250 251 251 251 251 250 250 248 248 246 245 245 244 243 243 243 244 243 243 242 243 243 244 244 245 246 247 248 249 250 250 252 255 257 259 261 264 265 266 268 268 267 266 265 265 265 264 263 263 262 262 262 262 262 262 262 262
260 259 259 259 259 259 259 259 258 258 258 258 257 257 256 256 255 254 254 254 254 253 253 253 252 252 251 251 251 251 251 251 251 250 250 249 248 247 246 245 245 244 243 243 243 243 242 242 243 244 244 246 246 246 247 248 249 250 252 255 258 261 264 265 265 266 267 269 268 267 265 265 265 264 263 263 262 262 262 262 262 262 262 262 262
Wind_Speed
14 15 14 15 15 16 16 16 16 14 13 13 14 13 12 12 12 11 7 13 15 16 16 16 16 15 15 14 15 14 14 12 11 10 10 9 8 8 8 8 8 6 7 6 5 5 5 5 4 4 4 4 3 3 3 3 2 3 3 3 3 2 2 4 10 16 12 4 10 4 2 5 10 7 13 9 11 11 11 11 12 10 11 11 11
15 17 15 15 16 16 15 13 13 12 14 13 14 13 12 13 12 9 14 13 13 16 17 15 15 16 15 15 14 13 12 12 11 10 10 10 9 7 8 9 8 7 7 7 6 6 5 5 4 4 4 4 3 4 4 4 4 4 4 3 4 4 2 4 8 10 21 6 8 10 5 3 12 4 11 15 11 11 15 11 10 10 10 10 10
16 13 12 13 16 15 13 12 12 14 15 14 14 14 13 12 11 13 13 12 11 12 14 15 15 15 14 14 14 13 13 12 11 11 11 11 11 9 9 9 10 10 9 8 7 6 6 5 5 5 3 4 5 5 4 4 4 5 4 3 3 3 3 4 6 11 14 17 5 14 10 5 8 13 10 11 14 11 13 13 9 8 8 10 11
14 13 14 15 14 12 13 13 13 14 15 15 17 15 12 11 10 12 12 10 13 11 10 12 13 15 15 14 14 13 13 11 11 10 11 11 11 11 10 10 9 9 8 8 8 7 7 6 5 5 5 5 5 5 4 4 6 5 5 4 3 4 4 4 7 8 12 15 15 6 14 10 8 8 10 11 12 13 10 12 11 11 9 10 11
11 13 14 15 13 14 14 14 15 16 17 15 16 15 14 12 11 13 12 11 12 11 11 11 12 13 14 15 14 13 13 12 12 11 10 10 10 10 10 10 9 9 8 8 8 8 7 7 6 6 5 5 5 5 5 7 6 5 5 4 4 4 4 5 7 8 11 15 18 13 9 13 10 10 9 12 12 11 12 13 12 12 13 11 10
13 13 13 14 15 16 16 14 16 18 18 17 17 15 14 13 13 12 13 13 12 11 14 13 13 13 12 12 13 13 12 12 13 12 11 10 9 9 9 9 9 8 8 8 7 7 7 6 6 6 6 7 6 6 7 8 6 5 5 4 4 5 6 7 8 9 10 15 15 19 15 11 17 12 5 14 13 13 15 13 11 10 11 13 10
13 14 15 15 15 16 16 17 18 18 18 16 14 14 14 15 14 15 13 14 14 13 13 14 12 13 12 11 12 13 12 11 11 11 11 10 10 10 10 9 8 7 7 8 7 7 6 6 6 7 8 8 7 7 7 7 6 6 6 6 6 7 7 7 8 10 11 12 14 14 17 15 11 16 11 6 13 11 14 18 20 9 8 13 17
14 16 15 16 17 17 17 17 17 16 13 12 13 13 13 13 14 13 13 15 15 15 15 14 12 11 12 12 11 11 12 11 11 11 10 11 10 10 10 9 9 8 8 7 7 6 6 7 7 8 8 8 8 7 7 6 5 6 6 6 7 7 8 8 9 10 11 12 12 13 11 13 13 11 12 12 14 13 8 11 21 22 18 14 12
14 14 15 16 17 16 15 14 12 12 13 13 13 13 14 14 13 13 14 14 12 13 12 12 13 12 11 12 12 11 12 12 10 11 11 11 9 10 10 10 10 9 8 8 7 7 7 7 8 8 8 11 14 12 10 9 6 6 7 8 8 8 8 8 8 9 11 11 13 11 13 15 14 15 14 12 14 17 14 11 15 17 18 18 19
15 15 16 18 16 14 14 12 12 12 13 14 15 15 14 13 13 13 14 14 13 12 12 12 13 14 14 12 11 11 10 9 12 18 14 11 11 9 8 9 9 8 9 8 8 8 8 8 8 13 15 15 14 14 15 15 14 10 7 6 7 7 7 8 8 8 8 8 8 10 13 14 16 15 17 16 11 17 18 16 20 19 17 21 19
16 16 18 17 16 14 12 13 13 15 15 13 12 13 14 13 13 13 13 12 13 13 13 14 13 12 14 14 14 11 10 9 19 20 20 19 11 10 9 9 8 9 8 8 8 9 8 9 8 11 12 12 11 15 14 15 14 14 16 16 13 9 7 8 9 9 10 13 13 13 14 17 18 18 16 19 18 15 19 17 16 20 18 17 21
14 15 17 14 13 14 14 13 14 14 13 15 14 14 12 13 13 14 13 13 12 12 13 14 13 12 11 11 12 11 10 14 22 22 21 21 16 10 8 9 9 9 9 9 8 8 8 8 8 7 8 9 7 7 10 12 13 13 14 15 16 18 18 13 11 10 10 11 13 13 15 16 20 11 16 13 16 20 17 18 21 16 20 21 17
14 14 14 12 13 13 12 13 14 14 15 14 13 12 14 14 14 14 16 14 11 14 14 12 12 11 12 13 12 10 9 17 21 22 21 21 21 15 8 9 9 9 9 9 9 8 8 9 8 7 6 12 9 7 6 6 10 13 14 15 17 18 18 21 22 17 12 13 14 14 12 12 16 20 15 18 16 20 23 17 15 19 17 17 24
12 13 10 11 11 12 12 13 14 14 13 12 12 13 14 16 14 12 11 11 13 12 12 14 12 12 12 13 11 10 10 17 22 23 22 23 22 17 9 10 8 9 10 10 9 10 10 9 8 8 7 7 6 6 5 5 5 6 7 8 9 13 17 21 23 24 20 15 14 17 19 15 17 20 20 17 21 16 17 19 21 16 21 19 20
10 11 11 12 11 12 13 14 15 13 13 12 13 13 14 12 13 12 13 14 15 15 15 14 13 12 11 11 10 11 10 20 23 23 23 24 23 16 8 9 9 8 9 10 9 10 10 9 8 6 5 4 5 6 6 6 6 7 8 9 9 9 11 11 9 10 13 15 16 18 18 16 17 15 17 14 17 17 16 19 20 19 18 18 16
11 8 9 10 12 13 13 13 12 11 12 12 13 14 14 15 15 12 11 10 9 9 8 10 12 13 12 12 11 11 11 22 23 24 25 25 25 12 10 10 8 8 8 8 9 9 8 6 4 4 3 4 8 13 11 7 6 7 8 9 8 8 10 14 20 20 16 14 14 15 15 17 22 22 21 19 16 14 16 15 14 15 15 17 19
8 9 10 11 12 12 12 12 12 12 13 14 15 15 15 14 12 10 12 12 12 12 13 13 12 13 14 13 13 12 11 20 25 25 25 26 20 9 10 8 7 7 7 9 8 8 6 4 3 3 4 5 9 12 12 11 7 7 8 8 9 11 11 9 15 20 23 25 26 28 30 31 30 29 29 33 26 20 14 14 17 13 12 16 16
8 7 11 10 9 9 9 11 13 13 14 16 16 14 12 9 11 11 14 14 13 13 11 11 10 11 14 15 14 14 12 18 26 25 25 27 16 10 9 8 7 7 7 7 5 5 6 10 7 5 6 7 10 12 12 10 7 7 8 11 12 10 10 11 12 11 18 24 27 28 26 24 26 31 32 30 29 23 13 15 15 12 17 16 19
5 6 5 3 4 5 7 8 10 11 13 13 12 13 13 13 11 10 10 10 11 9 10 10 10 9 10 12 15 15 13 16 26 25 26 26 17 9 9 8 8 7 6 6 6 5 6 7 11 10 9 8 12 12 13 11 6 8 10 10 9 11 12 12 11 11 11 11 11 8 10 16 15 14 16 27 28 24 17 17 13 13 16 17 17
5 5 5 5 5 6 6 8 8 9 9 7 7 9 8 9 10 11 9 9 9 9 9 9 11 10 10 11 11 10 11 10 17 26 24 25 21 11 8 10 9 9 7 7 6 7 6 6 7 11 11 11 12 12 12 13 9 7 7 8 8 9 9 9 12 13 11 8 8 9 12 12 13 14 14 15 16 16 17 16 15 13 14 15 16
2 3 3 5 6 7 6 8 9 8 9 10 9 8 9 11 11 11 11 9 9 9 10 9 9 8 9 9 8 10 11 10 14 26 24 25 24 19 9 10 9 9 9 9 8 7 6 6 6 7 9 10 10 11 12 13 14 9 7 6 7 12 15 10 9 12 8 10 11 11 11 11 10 10 12 12 13 13 14 16 15 15 14 14 15
2 2 3 4 6 7 8 8 8 8 8 10 11 10 8 9 10 11 10 10 11 11 10 9 9 9 8 8 7 9 10 14 11 21 24 24 23 23 12 10 11 10 9 8 8 7 7 7 5 7 9 9 10 11 13 14 16 9 8 15 20 20 14 9 7 7 8 8 9 10 10 10 10 10 10 10 10 12 12 13 13 14 15 16 16
2 3 4 5 6 7 7 9 9 8 9 10 12 11 10 10 10 10 11 11 12 13 13 12 11 11 8 6 5 7 9 11 17 14 22 24 24 22 20 14 20 10 9 8 9 8 8 6 6 9 9 9 10 12 13 14 12 9 14 16 18 20 16 5 8 8 8 9 9 10 11 10 10 10 10 10 10 11 12 13 15 16 16 17 19
3 4 4 5 5 6 6 7 6 7 9 10 10 11 11 11 10 10 11 11 11 12 9 9 9 11 9 8 6 6 7 6 14 18 17 24 23 22 22 20 20 11 7 7 7 7 5 6 5 9 8 10 10 10 11 11 8 12 14 16 18 15 6 8 6 8 9 10 10 10 11 9 9 9 10 10 12 13 14 14 16 17 17 17 19
5 6 5 5 6 6 7 8 8 8 9 11 12 11 12 12 12 10 11 10 12 12 8 8 8 7 7 8 7 6 6 6 6 13 19 20 22 22 21 21 20 18 10 7 7 7 8 10 11 11 9 6 6 7 7 7 10 11 13 15 14 5 6 6 8 7 9 9 10 11 11 10 11 13 14 14 15 13 12 13 12 14 14 17 17
7 8 6 7 8 7 8 8 8 8 9 9 10 11 14 14 13 12 11 14 12 13 12 9 8 13 11 8 9 9 8 7 8 9 12 15 16 20 21 20 19 17 12 9 13 12 12 12 9 3 1 1 2 2 3 5 10 12 13 13 5 6 6 7 7 8 9 10 11 12 12 12 13 14 15 14 12 12 12 13 13 12 10 12 14
8 7 8 7 7 8 10 9 9 9 11 9 9 9 10 11 12 13 14 18 15 13 11 10 10 11 10 9 9 9 8 10 11 11 10 10 9 12 13 13 17 15 9 8 8 5 6 6 4 3 1 2 4 5 6 7 6 6 4 4 5 6 7 6 7 8 9 10 11 12 12 12 13 13 12 11 12 11 12 13 14 14 12 13 14
9 9 9 7 7 9 10 11 12 10 11 12 11 10 9 10 12 15 16 20 18 16 15 11 13 12 11 13 13 12 13 13 13 13 12 11 11 10 9 8 8 6 7 6 6 5 5 5 6 4 3 2 1 1 2 2 4 4 4 5 6 8 9 13 12 9 9 9 11 11 12 12 12 12 12 11 12 12 12 12 12 15 13 13 12
9 8 7 7 8 8 8 9 10 10 11 10 9 10 11 11 10 8 8 10 14 17 17 16 18 17 18 17 17 10 7 14 14 13 14 17 15 12 10 10 8 7 9 11 8 6 5 4 4 3 1 0 1 2 2 2 3 3 5 6 6 6 5 4 6 8 8 8 10 11 13 12 13 12 12 13 13 12 11 12 12 11 14 10 15
8 9 7 8 7 7 8 9 9 9 10 10 9 8 7 10 9 8 8 12 18 15 15 15 17 15 15 13 15 20 20 16 20 28 25 23 23 20 16 16 14 10 13 18 10 6 5 5 4 4 2 3 2 3 3 2 3 5 5 6 6 5 5 5 6 8 8 9 10 11 12 13 13 13 13 14 15 13 13 15 15 13 14 15 15
9 9 8 9 10 10 9 8 9 9 9 9 8 9 7 7 14 16 11 12 18 19 17 15 19 20 15 14 11 10 13 21 27 26 25 25 24 22 21 20 19 19 18 12 7 7 5 6 4 3 4 3 3 4 2 2 4 4 6 6 5 5 7 6 7 8 9 9 10 10 11 12 13 13 14 15 16 16 14 12 12 14 14 15 16
10 10 10 10 9 9 9 9 9 9 9 9 9 9 9 9 7 15 17 15 20 21 20 18 20 20 17 14 13 10 17 24 28 27 26 26 24 22 22 21 21 21 20 16 7 6 6 6 4 5 4 4 4 3 3 3 4 5 5 6 7 5 6 7 7 7 9 9 10 11 11 11 12 13 14 15 16 16 15 15 14 14 15 15 15
13 12 10 9 8 10 9 9 10 11 11 11 11 11 11 11 11 9 10 17 20 20 20 21 23 22 19 20 20 18 21 24 27 27 26 25 25 24 23 22 22 22 20 9 8 7 5 5 5 4 5 5 4 3 4 4 4 5 5 5 6 7 7 9 10 9 9 9 10 11 11 11 12 14 14 14 15 15 15 15 15 14 15 16 16
15 13 11 10 10 10 11 11 11 12 12 11 11 11 11 11 11 11 11 10 13 16 19 21 22 23 22 24 22 23 26 28 28 27 27 25 25 23 21 16 20 20 14 9 8 7 6 6 5 5 5 4 3 3 3 4 4 4 5 5 6 7 8 9 8 9 8 10 10 11 11 12 12 13 14 15 14 14 15 15 15 16 16 15 17
14 15 18 13 10 11 11 11 11 10 10 11 11 12 12 11 11 12 13 14 14 14 11 13 20 24 19 19 21 26 28 29 28 27 27 25 24 24 21 12 10 6 5 5 7 7 8 7 6 6 5 4 3 3 4 4 4 4 4 5 6 7 7 7 8 9 9 10 10 10 11 12 13 13 14 15 15 15 15 16 15 15 16 17 16
15 13 12 13 12 10 10 10 10 11 11 11 10 10 10 11 12 12 11 11 11 11 10 10 11 18 26 22 26 28 29 27 26 26 25 25 25 24 12 8 7 6 6 5 6 6 6 6 5 5 5 3 3 4 4 5 5 4 4 5 7 7 7 8 9 9 10 9 10 12 13 12 12 13 14 14 15 15 15 16 17 16 16 16 16
13 12 12 11 11 10 9 9 10 10 9 9 10 10 10 11 10 10 11 12 11 11 11 11 12 13 17 13 22 26 28 26 26 25 24 24 25 12 8 9 8 7 6 6 5 5 6 6 6 5 4 4 4 4 4 5 4 5 6 6 6 8 8 8 9 9 9 10 10 11 12 12 13 14 14 15 15 14 15 16 17 18 17 19 19
17 14 13 11 9 9 10 10 10 12 10 10 10 10 11 11 12 12 12 12 13 13 13 13 14 14 16 14 18 13 17 23 25 21 19 17 9 8 7 6 7 8 7 5 6 6 6 5 5 5 4 4 4 4 4 4 4 4 5 6 7 8 14 12 13 11 10 10 10 11 11 12 12 13 14 14 15 15 17 17 17 18 18 17 15
14 19 21 18 12 11 10 10 10 11 11 11 11 12 12 12 12 12 12 12 13 13 13 14 14 14 14 14 13 15 19 14 12 10 9 7 7 6 6 6 6 5 5 6 5 5 4 5 5 4 4 4 4 4 4 4 4 5 5 6 7 8 9 8 9 9 9 10 10 11 11 12 12 13 13 14 15 15 17 17 17 17 18 18 16
14 11 13 18 10 11 10 10 11 11 12 13 12 12 12 13 14 14 14 14 14 14 14 14 14 13 14 14 15 15 14 13 12 10 9 8 7 6 6 7 6 6 7 6 5 4 5 4 4 4 4 4 4 4 3 4 5 5 6 6 7 8 9 8 9 9 10 10 11 11 12 13 13 13 13 12 13 15 17 18 17 17 17 18 18
14 13 11 11 13 10 10 11 11 13 12 12 12 13 14 13 13 12 12 13 13 13 13 12 12 11 10 14 23 19 14 13 12 10 9 9 8 8 7 6 6 6 5 5 5 5 5 5 4 4 4 4 4 3 3 4 5 6 6 7 6 7 8 9 9 10 11 11 11 12 12 13 13 13 13 13 16 16 16 16 17 17 17 17 17
13 11 10 9 11 10 10 11 11 12 12 12 12 13 12 12 12 12 12 13 12 12 12 11 10 9 12 25 23 23 13 10 10 9 8 8 8 8 6 5 5 5 6 6 5 6 5 4 4 3 4 3 3 3 4 5 5 6 6 6 7 7 8 9 9 10 11 11 12 13 13 14 15 14 14 15 14 15 16 16 16 17 17 17 17
13 11 9 9 10 12 12 11 11 11 12 12 11 10 11 12 12 11 11 11 12 12 12 12 10 9 12 20 21 21 10 10 8 10 9 8 8 7 7 6 5 5 4 4 4 4 4 3 2 3 4 4 3 4 5 6 6 6 6 6 7 8 8 9 9 10 10 11 13 14 15 15 14 12 13 14 15 15 16 18 17 17 17 17 17
12 9 8 9 9 9 8 9 10 10 10 10 10 10 11 11 11 12 13 13 13 12 12 12 12 12 11 14 14 11 10 9 9 8 9 8 7 7 6 6 6 6 4 4 4 4 4 3 2 3 3 4 4 5 6 7 6 6 6 6 7 8 9 9 10 10 11 12 13 14 15 13 12 13 14 15 15 16 17 18 18 18 18 17 17
9 8 8 8 8 9 9 9 10 10 10 10 10 10 10 11 12 12 12 12 11 11 11 11 11 12 10 10 11 11 9 9 8 8 8 8 8 7 6 7 7 5 4 4 4 4 3 3 2 2 4 4 5 6 7 7 6 6 6 7 7 8 9 10 10 11 12 13 13 12 12 12 13 14 14 15 16 16 17 17 17 18 19 18 18
8 8 8 8 8 8 9 9 9 10 11 11 11 11 10 10 11 12 11 11 11 12 11 11 11 10 7 9 10 9 9 8 7 7 7 7 7 6 7 7 6 5 4 4 3 2 2 2 2 3 5 6 6 6 7 7 6 6 6 6 8 9 9 10 11 11 12 13 12 12 12 12 14 13 16 16 15 16 17 18 17 17 17 19 19
6 7 7 7 8 8 7 8 9 9 9 9 10 10 10 10 10 10 9 11 11 10 11 11 10 9 8 9 10 10 9 8 8 8 8 7 6 7 7 6 5 4 4 3 2 2 1 1 2 4 6 6 6 7 7 6 5 6 5 6 7 9 9 9 10 11 12 13 13 12 11 12 14 14 15 16 15 16 17 17 17 19 19 18 18
6 6 7 7 8 9 9 9 10 10 10 10 10 9 9 9 10 10 9 10 11 10 10 9 9 8 8 8 9 9 9 8 7 7 6 6 6 7 7 6 6 5 3 1 1 1 1 2 4 5 6 6 6 7 6 6 6 6 6 7 7 8 12 15 12 14 12 12 13 12 11 13 13 13 14 15 16 16 17 17 17 16 18 18 17
7 7 8 8 8 9 10 10 10 10 10 10 10 10 9 10 10 10 10 11 10 10 10 11 10 9 8 10 10 11 10 9 10 7 6 6 8 7 6 5 4 4 2 1 0 0 1 3 5 5 6 6 7 7 7 6 7 7 8 8 10 17 20 22 16 12 18 15 12 10 11 12 13 13 14 15 16 16 16 17 17 18 17 17 17
7 7 8 9 9 9 8 8 9 9 9 10 11 10 10 10 10 10 11 11 11 11 9 9 10 10 11 12 12 11 9 9 8 7 6 6 6 6 6 5 4 3 2 1 0 1 2 3 4 6 6 7 7 7 6 6 6 8 8 10 16 20 21 22 23 24 19 12 11 10 11 13 13 12 12 14 15 17 17 17 18 17 17 18 17
8 8 8 8 8 9 9 9 9 9 10 10 10 11 11 11 12 12 12 10 12 13 13 11 11 8 7 7 9 9 8 7 6 6 6 6 6 6 5 4 3 2 0 0 1 2 3 4 5 6 6 6 6 6 6 6 6 7 11 18 21 21 22 21 15 19 25 17 10 10 11 13 13 13 13 14 15 16 17 18 18 17 17 16 17
Wind_Direction
205 212 204 208 205 204 204 201 200 196 193 196 200 203 199 197 198 200 171 188 177 176 180 181 178 177 174 176 177 178 178 178 179 174 174 172 174 171 170 168 161 158 152 154 155 157 163 168 170 174 168 189 204 204 217 214 216 221 220 210 239 228 236 261 272 283 284 203 278 227 257 312 291 281 287 280 285 284 267 276 280 278 279 281 283
212 213 206 207 205 209 205 201 198 193 195 195 201 202 200 197 192 178 193 191 184 184 181 178 178 175 175 177 178 178 179 177 175 174 174 172 172 170 171 167 163 160 158 162 161 165 163 169 178 169 170 188 197 207 212 217 214 226 229 222 236 253 227 265 270 280 289 278 284 289 263 256 285 258 287 298 283 282 289 280 272 270 275 277 278
213 213 209 208 210 209 202 197 194 196 196 198 201 202 200 192 183 190 191 188 188 188 186 179 176 174 175 176 176 177 178 177 178 176 177 174 172 172 173 171 169 166 167 168 163 158 164 173 181 165 170 190 208 212 207 207 214 223 233 215 237 243 248 249 274 281 285 291 295 296 295 281 276 295 286 282 289 287 287 286 273 268 268 270 274
210 207 209 212 210 202 202 198 193 197 199 202 202 198 191 189 183 189 191 185 186 187 183 183 176 176 176 175 177 176 175 176 176 180 178 175 174 173 172 174 172 170 165 160 160 165 169 174 180 174 180 197 211 206 206 205 221 230 225 229 219 245 247 246 258 268 288 292 294 281 300 299 285 275 288 284 286 293 281 280 283 279 266 265 260
206 211 209 211 205 203 203 196 197 198 202 202 203 193 189 184 181 186 182 187 190 177 177 179 182 180 180 178 175 175 176 173 175 178 179 179 176 171 172 170 170 166 162 162 164 164 170 177 176 170 179 197 210 207 207 212 222 211 223 215 224 235 236 246 254 258 273 280 289 287 288 291 283 283 292 293 295 287 284 282 286 284 281 261 260
209 209 209 209 206 204 202 197 202 203 204 202 198 192 187 182 183 185 181 183 181 186 179 178 181 185 181 177 174 173 173 176 178 177 176 174 172 172 168 167 166 163 161 163 161 166 173 175 176 175 185 200 211 212 211 216 214 212 208 216 223 230 239 243 249 252 254 269 279 293 290 287 301 283 291 301 298 303 300 287 274 273 280 286 271
206 208 209 208 209 208 202 202 203 205 203 201 195 189 186 184 181 185 182 178 177 182 188 181 181 178 177 172 175 174 173 174 175 176 174 173 172 170 168 165 163 158 161 161 162 166 172 176 181 189 197 206 210 213 216 215 213 214 211 220 226 235 243 247 248 254 255 264 271 271 285 289 280 292 300 263 282 289 299 306 299 278 267 285 295
206 208 207 209 211 209 204 205 205 205 201 198 193 191 186 183 185 181 174 179 182 183 182 185 179 173 173 172 173 169 170 174 176 175 175 173 171 170 169 164 160 157 158 161 164 169 178 188 195 200 205 208 209 213 209 211 208 214 222 220 227 235 244 249 250 252 258 260 263 280 276 284 293 269 281 298 296 286 273 289 296 304 306 289 267
208 209 209 212 214 210 207 207 203 196 192 191 191 189 188 186 181 178 180 181 179 181 178 177 173 174 170 171 169 170 174 178 177 174 171 174 172 169 168 165 161 160 158 164 170 176 186 194 201 206 206 211 217 218 215 213 208 218 225 220 227 235 241 248 249 251 257 262 270 272 278 282 281 288 293 290 288 287 299 291 285 291 297 297 296
206 208 211 215 214 208 205 199 195 191 190 192 191 188 185 181 179 180 181 180 175 172 174 178 179 176 171 170 170 173 179 176 179 178 176 170 169 166 161 163 160 159 161 164 173 181 189 193 202 212 216 218 222 226 229 231 229 225 218 211 220 223 232 244 250 251 253 255 257 276 280 279 285 287 291 292 289 296 295 299 296 297 298 293 287
208 207 210 213 210 203 197 195 189 193 195 191 188 183 183 179 179 178 177 175 174 173 173 175 180 181 176 172 173 176 177 175 179 181 180 176 166 163 163 164 163 162 165 164 173 182 188 195 200 212 216 222 227 232 238 240 244 248 252 256 255 251 246 253 254 258 268 270 274 273 270 279 283 290 287 293 298 299 300 298 293 295 293 290 296
209 213 216 209 203 199 196 192 190 195 188 191 186 185 177 175 178 178 175 175 176 169 176 181 177 175 174 174 175 175 174 178 182 182 180 177 171 166 162 164 165 166 169 173 176 179 184 193 203 202 212 217 216 227 236 241 246 250 254 258 261 262 262 261 267 266 264 272 277 273 279 279 287 288 294 300 299 296 290 290 289 283 286 287 280
210 215 213 205 204 197 192 190 194 190 192 188 181 175 177 178 179 176 182 179 164 175 181 171 178 173 173 173 175 174 172 180 183 182 181 178 173 167 167 165 168 169 172 176 178 179 186 196 202 206 201 217 221 219 209 226 246 255 261 263 266 266 268 268 269 270 276 274 271 275 275 291 291 288 286 290 289 290 290 282 281 283 278 276 277
210 214 208 204 199 192 192 192 193 193 187 181 175 177 178 184 182 178 166 163 174 174 173 177 172 175 175 175 173 172 171 185 184 183 182 179 175 169 171 167 164 171 175 179 181 186 194 196 195 207 204 205 209 206 212 216 218 235 244 247 246 256 263 266 269 271 275 277 282 281 280 273 272 282 283 285 285 282 285 284 287 282 281 272 276
210 210 203 201 191 192 192 193 193 187 181 177 176 181 182 178 174 176 174 176 176 179 177 177 177 172 172 170 169 174 179 186 186 185 183 180 177 166 166 169 170 174 179 182 186 192 197 197 204 204 205 211 208 220 217 225 227 235 237 238 244 245 256 261 261 265 266 264 264 266 272 275 274 280 286 286 283 278 273 275 281 284 286 289 287
215 207 204 198 197 197 192 192 187 179 176 175 178 182 182 181 178 173 170 173 175 167 171 171 170 172 172 170 170 177 180 189 187 186 185 184 178 165 170 172 169 169 175 184 190 192 195 206 196 209 218 224 236 241 243 241 239 242 252 254 257 261 263 265 268 270 269 268 271 275 279 282 284 285 286 287 290 293 296 296 296 295 296 293 287
221 210 210 203 202 195 190 186 182 178 176 177 184 183 181 181 176 167 169 174 173 177 177 177 175 173 173 175 175 178 181 192 188 185 184 184 181 155 166 164 167 160 168 179 183 197 200 186 194 202 224 225 240 248 253 258 264 264 262 268 268 265 260 259 274 280 280 281 281 283 284 285 286 289 294 297 295 298 302 296 287 294 289 285 281
221 212 216 209 203 196 190 184 182 179 179 186 186 185 179 173 173 171 175 174 179 181 172 172 178 178 176 179 181 177 180 190 187 185 183 185 173 158 164 159 149 156 165 172 160 183 203 207 209 215 230 241 249 257 264 267 267 266 274 270 266 265 277 286 288 280 282 284 282 281 282 287 294 296 295 295 293 294 286 280 286 295 285 284 286
230 229 237 204 192 187 187 187 187 184 188 190 181 176 176 177 170 166 175 173 175 167 171 173 175 180 185 182 181 180 177 187 186 185 184 185 172 154 158 155 157 163 167 166 175 188 202 213 221 224 230 243 253 260 266 269 274 271 266 274 280 285 286 291 289 286 272 263 272 292 295 293 294 292 288 290 290 289 283 277 281 274 276 279 280
215 203 187 172 170 174 181 185 184 182 183 171 172 177 168 158 164 170 170 168 165 168 171 173 177 182 177 179 184 174 163 183 186 184 181 182 168 157 152 160 167 168 168 176 181 190 193 204 217 225 234 247 261 267 270 271 268 271 281 283 282 281 296 288 271 268 285 306 301 293 288 288 288 285 281 284 286 283 281 275 271 268 268 274 281
235 210 166 164 170 174 171 180 178 176 169 170 166 166 170 170 165 169 166 164 160 163 172 172 173 177 177 178 176 168 180 177 186 185 183 183 171 163 161 167 165 166 167 174 186 187 191 190 190 220 238 249 256 263 270 272 277 285 287 283 284 287 289 279 289 317 317 303 295 292 287 284 276 272 274 278 281 279 275 274 269 269 271 274 278
214 177 184 184 180 175 175 171 167 166 163 160 166 173 171 166 169 168 166 163 163 165 167 170 173 172 170 177 173 173 185 187 180 186 184 184 176 169 166 171 167 161 171 180 186 185 180 176 191 215 229 243 253 261 268 278 288 290 289 288 290 294 295 306 324 312 302 295 288 284 283 282 280 279 277 275 272 272 278 280 278 277 275 274 276
194 188 185 182 181 179 176 170 167 163 169 172 169 169 164 163 166 168 166 165 168 169 171 171 170 173 165 163 159 164 180 188 186 184 185 184 182 174 172 170 177 171 178 180 183 176 165 175 190 211 229 240 250 262 277 286 293 290 291 293 296 300 307 338 316 303 290 286 284 282 281 280 283 285 281 279 283 286 287 285 284 282 276 274 271
201 200 201 191 178 175 168 170 167 169 170 167 171 166 168 168 167 174 172 170 171 172 175 167 162 172 165 161 166 164 176 174 188 187 187 185 186 177 177 178 180 176 177 171 163 151 140 150 184 209 221 237 258 278 282 287 286 290 296 297 302 311 332 313 299 289 288 287 284 279 280 278 278 280 284 289 292 293 289 283 284 280 278 277 277
210 209 204 191 181 173 164 169 169 171 175 173 174 173 169 168 170 178 175 179 180 172 161 152 163 144 146 157 159 160 166 165 181 190 190 188 187 184 178 180 186 179 167 161 144 143 155 184 200 214 226 257 280 291 297 295 293 294 298 303 312 339 313 293 289 290 288 286 285 285 284 287 289 291 293 296 294 289 281 280 269 264 261 262 263
227 222 201 187 183 170 173 172 170 174 179 188 191 185 177 177 177 178 183 177 177 175 156 163 161 176 173 154 155 158 165 153 170 180 191 189 188 188 184 183 186 178 149 150 150 165 187 200 198 174 106 314 317 286 273 273 288 299 306 311 318 298 280 282 284 287 284 288 288 290 292 294 296 296 296 293 289 288 291 288 290 279 275 276 280
229 220 210 202 184 177 180 182 179 178 182 187 194 193 190 188 184 185 176 159 177 179 175 166 168 179 170 155 147 158 156 169 176 176 176 176 176 183 184 187 182 172 152 165 166 158 159 144 118 148 143 245 265 274 285 302 313 312 300 285 272 270 269 256 264 276 285 288 290 288 290 293 294 296 294 294 289 285 286 287 287 286 288 286 282
230 226 213 199 195 191 193 185 180 185 189 188 188 191 199 199 197 196 184 182 183 188 183 171 174 172 168 167 167 168 176 178 180 176 174 171 171 175 171 166 166 149 143 140 128 130 118 94 81 63 67 38 10 341 277 260 264 272 277 271 269 265 270 284 290 287 280 277 282 287 289 294 296 296 295 290 287 286 286 282 283 288 288 292 286
237 235 217 202 205 198 196 185 190 189 192 195 203 196 188 195 209 228 232 210 199 189 182 187 187 185 179 177 173 164 133 181 186 174 174 174 168 164 160 162 152 150 156 141 113 95 98 98 102 88 81 155 250 255 256 257 257 249 263 268 261 258 268 271 271 275 278 286 287 291 293 297 295 294 292 292 289 289 287 285 279 278 290 282 281
234 233 213 211 209 196 201 195 192 189 190 193 195 201 208 211 215 217 219 218 226 228 199 191 187 178 184 187 178 174 181 180 170 177 175 173 173 168 163 162 165 157 175 164 140 130 137 148 151 148 167 191 230 253 263 272 290 292 275 275 277 279 280 278 275 278 284 283 285 291 293 296 294 295 294 294 295 292 288 290 292 294 293 294 291
238 233 213 213 207 201 201 195 192 191 190 189 190 195 200 214 218 220 220 212 212 215 206 206 195 189 181 170 174 170 162 164 171 171 172 173 172 169 168 173 170 174 174 144 127 146 150 152 172 176 199 194 216 232 245 263 274 278 282 284 277 283 289 281 280 280 281 286 286 285 286 288 289 293 296 296 296 295 295 290 289 293 292 294 293
243 236 219 217 205 200 201 196 188 186 192 187 188 186 191 194 208 216 216 209 203 204 206 199 191 186 184 167 155 145 162 166 167 168 169 169 170 170 171 172 172 173 163 143 130 150 149 159 165 198 193 198 224 220 228 244 257 261 271 285 290 284 282 278 280 282 284 285 288 287 284 284 287 291 293 295 294 294 295 299 300 298 296 292 288
247 248 233 213 204 198 196 195 193 192 189 186 188 185 187 188 189 185 201 205 200 198 198 197 190 188 178 170 164 159 159 162 164 166 168 171 172 172 172 172 171 166 152 136 147 154 157 167 184 194 194 206 206 204 230 236 249 255 256 267 281 288 282 284 290 283 279 278 284 284 286 286 290 293 292 293 294 296 299 299 301 298 296 296 293
250 249 239 213 201 198 201 200 197 199 195 190 187 185 190 188 184 178 169 172 190 200 202 196 189 183 180 176 170 164 163 163 165 168 171 172 169 167 165 165 163 152 144 153 149 161 162 173 196 200 204 205 207 218 244 244 249 252 265 267 269 279 282 286 284 283 285 283 279 277 286 290 292 294 295 297 293 292 296 300 303 303 300 296 296
261 253 243 225 204 207 202 199 200 196 192 190 188 186 186 184 179 182 180 180 179 180 176 182 183 175 169 169 167 165 163 164 164 167 167 165 164 164 158 150 141 111 94 114 150 148 161 180 190 203 186 202 213 215 241 252 251 257 263 273 279 278 281 282 281 284 284 283 282 285 290 291 293 292 294 296 299 301 302 303 303 300 300 300 298
257 253 246 224 214 211 201 199 196 194 193 192 186 184 180 178 182 184 184 182 178 168 165 164 163 170 167 168 167 164 164 164 166 163 164 165 166 159 142 151 144 156 151 157 154 158 156 176 183 195 185 199 217 228 235 246 252 257 261 263 275 281 282 282 281 281 277 280 289 293 294 291 291 293 294 291 292 297 303 304 303 301 297 296 296
267 257 247 231 216 210 202 195 195 194 188 179 177 180 181 183 180 180 179 180 173 168 159 150 146 159 161 162 166 163 164 163 161 162 163 167 165 144 145 157 163 158 163 166 162 152 170 198 189 178 187 204 222 233 238 248 256 262 272 276 272 277 274 270 272 275 291 294 289 288 288 290 293 294 295 297 299 302 304 304 302 300 299 296 297
261 253 249 235 214 206 198 193 190 180 179 178 181 180 181 180 180 179 177 174 169 163 160 161 160 160 157 161 162 159 160 156 157 157 162 157 124 128 150 156 158 167 168 168 168 163 180 185 181 182 208 205 227 236 239 257 256 267 271 276 278 265 283 288 291 289 282 283 288 292 294 292 292 293 296 296 301 306 307 306 304 304 302 297 298
252 248 244 235 210 200 195 185 178 179 181 179 181 181 181 178 176 178 175 171 167 165 164 163 164 161 160 158 153 154 151 155 154 145 127 111 115 119 136 153 156 147 150 159 162 169 180 185 193 191 203 214 229 239 243 262 267 271 271 274 277 281 286 282 284 287 289 287 292 293 292 292 291 293 294 297 302 308 307 306 305 304 302 304 302
260 254 244 232 209 196 185 186 180 182 182 178 182 181 179 180 180 178 172 169 169 168 167 165 166 163 163 158 155 157 152 151 145 141 129 134 131 142 143 154 158 155 159 166 171 178 181 195 186 193 215 221 227 239 243 255 265 269 272 267 272 280 284 286 288 291 292 293 292 293 293 293 295 293 292 294 303 307 308 307 305 303 302 301 301
256 250 239 222 203 188 183 182 186 185 184 181 182 179 183 180 176 172 170 168 165 164 163 162 156 158 160 161 160 154 147 144 142 136 141 140 143 143 156 152 153 152 158 163 174 180 186 183 191 202 221 227 232 240 253 258 264 267 266 270 274 276 284 285 286 288 290 294 293 294 295 296 298 299 297 302 309 308 305 305 303 303 302 300 300
248 243 228 215 197 185 183 188 188 182 180 179 180 180 177 174 171 169 166 164 160 156 149 145 147 146 161 157 148 139 127 126 127 132 136 141 146 149 155 151 148 153 158 170 176 178 178 179 195 200 221 237 237 252 256 261 256 261 267 274 278 283 284 286 287 288 291 292 294 293 295 300 301 296 301 309 310 309 307 307 305 305 304 305 304
252 235 218 193 190 185 186 186 175 176 178 180 181 173 168 165 163 159 157 155 154 150 146 144 143 154 157 152 140 130 116 132 135 140 145 144 146 150 155 158 158 157 158 169 184 178 171 171 198 217 228 241 239 245 247 256 253 263 268 272 279 280 284 286 290 291 291 294 293 293 296 299 300 300 311 312 310 309 307 307 307 306 306 305 307
251 230 201 190 186 177 175 168 174 175 175 169 161 160 160 157 154 154 155 154 155 152 152 150 152 156 156 143 126 120 131 133 143 144 147 145 151 152 152 147 132 117 139 180 195 175 163 170 210 245 247 257 254 253 251 249 247 248 262 273 279 280 285 289 290 294 295 295 291 290 296 291 294 310 313 312 312 312 311 310 310 310 310 309 308
230 203 182 173 169 164 166 165 163 161 154 153 154 156 155 155 156 156 153 152 148 146 147 151 155 158 152 134 132 136 135 139 140 142 145 147 147 149 146 133 118 143 163 192 185 164 158 171 210 260 274 266 255 250 252 248 243 242 245 256 266 275 279 283 285 290 290 285 285 287 291 294 311 315 313 312 313 312 309 310 311 310 310 310 311
200 181 175 166 163 158 158 156 155 151 154 155 152 152 150 150 149 150 149 146 144 145 145 152 158 152 131 123 128 126 134 137 143 139 137 133 138 144 129 112 111 145 182 181 172 156 159 170 204 240 256 263 262 255 256 256 255 251 249 243 255 263 269 277 280 282 279 285 286 283 288 305 316 312 311 312 311 311 308 309 310 311 310 310 309
174 157 158 149 149 142 141 140 141 143 142 143 143 144 143 144 141 140 141 140 141 141 146 149 145 130 124 126 129 131 133 138 140 138 141 139 139 134 100 106 118 165 195 188 165 150 167 205 231 239 250 257 262 264 268 263 266 264 263 261 257 268 268 272 277 279 284 285 281 281 301 317 314 314 311 312 312 311 311 310 313 313 312 312 312
127 121 127 128 128 129 131 133 130 131 132 135 136 137 134 131 134 134 135 137 137 137 136 132 131 124 120 122 118 121 125 126 126 126 126 137 141 115 111 132 166 188 185 171 160 145 185 232 247 248 256 259 264 270 272 278 278 278 278 274 270 264 273 277 283 286 279 276 283 294 313 315 311 309 310 311 312 312 313 314 315 314 314 314 315
101 110 117 120 123 127 131 134 134 138 135 133 128 127 127 130 132 133 137 138 141 142 141 141 135 129 124 122 122 110 111 113 114 132 137 135 104 112 132 166 174 178 165 154 157 180 233 249 248 254 251 261 259 267 274 279 284 284 283 280 280 280 284 287 285 276 283 286 294 310 316 311 308 308 308 311 311 312 311 312 314 315 315 315 316
89 94 105 108 112 112 114 117 120 122 123 127 129 127 128 128 130 135 132 126 123 122 115 128 129 124 119 122 109 122 130 136 140 142 144 134 133 141 153 162 166 172 155 154 220 246 254 253 256 257 258 257 259 260 264 271 276 279 280 278 281 284 283 285 292 297 300 306 311 323 316 310 306 307 309 312 312 312 314 316 317 317 316 317 319
85 89 92 98 105 109 114 117 119 122 128 130 129 131 130 132 131 114 96 113 122 115 106 109 113 114 117 122 130 129 135 134 139 140 145 154 161 163 163 161 158 142 133 167 274 267 260 259 261 258 259 260 261 261 264 268 272 272 273 276 280 286 297 307 308 307 307 314 327 323 316 311 309 310 315 317 316 317 315 316 318 319 319 319 320